• en France
  • Liste des pays
  • À 7 jours
  • Température de l'eau
  • Carte satellitaire
  • Carte météo
  • Widgets météo
  • user-avatar
    Se connecter

    Météo par heure à Soscha

    Ce jour, 16 Juillet, Lundi

    Heure Température Précipitation Vent Pression Humidité
    00:00 +21°C° 0,6 mm 2 m/s 744 mmHg 90%
    01:00 +20°C° 0 mm 2 m/s 744 mmHg 91%
    02:00 +20°C° 0 mm 2 m/s 744 mmHg 92%
    03:00 +19°C° 0 mm 2 m/s 744 mmHg 93%
    04:00 +20°C° 0 mm 2 m/s 744 mmHg 92%
    05:00 +20°C° 0 mm 3 m/s 744 mmHg 92%
    06:00 +20°C° 0 mm 3 m/s 744 mmHg 91%
    07:00 +22°C° 0 mm 3 m/s 744 mmHg 86%
    08:00 +25°C° 0 mm 3 m/s 744 mmHg 80%
    09:00 +26°C° 0 mm 4 m/s 744 mmHg 74%
    10:00 +28°C° 0 mm 4 m/s 744 mmHg 68%
    11:00 +29°C° 0 mm 4 m/s 743 mmHg 62%
    12:00 +30°C° 0 mm 5 m/s 743 mmHg 56%
    13:00 +32°C° 0 mm 5 m/s 743 mmHg 54%
    14:00 +32°C° 0 mm 5 m/s 743 mmHg 53%
    15:00 +33°C° 0 mm 5 m/s 743 mmHg 51%
    16:00 +32°C° 0,2 mm 5 m/s 742 mmHg 55%
    17:00 +30°C° 0,2 mm 4 m/s 742 mmHg 60%
    18:00 +29°C° 0,2 mm 4 m/s 742 mmHg 64%
    19:00 +28°C° 0,4 mm 4 m/s 742 mmHg 71%
    20:00 +26°C° 0,4 mm 3 m/s 742 mmHg 78%
    21:00 +24°C° 0,4 mm 3 m/s 742 mmHg 85%
    22:00 +24°C° 0 mm 3 m/s 742 mmHg 87%
    23:00 +22°C° 0 mm 3 m/s 742 mmHg 89%

    Demain, 17 Juillet, Mardi

    Heure Température Précipitation Vent Pression Humidité
    00:00 +21°C° 0 mm 3 m/s 742 mmHg 92%
    01:00 +21°C° 0 mm 3 m/s 742 mmHg 92%
    02:00 +21°C° 0 mm 4 m/s 742 mmHg 92%
    03:00 +21°C° 0 mm 4 m/s 741 mmHg 92%
    04:00 +21°C° 0 mm 4 m/s 741 mmHg 92%
    05:00 +21°C° 0 mm 4 m/s 741 mmHg 91%
    06:00 +22°C° 0 mm 5 m/s 741 mmHg 90%
    07:00 +23°C° 0,1 mm 5 m/s 741 mmHg 85%
    08:00 +25°C° 0,1 mm 5 m/s 741 mmHg 80%
    09:00 +27°C° 0,1 mm 6 m/s 740 mmHg 74%
    10:00 +26°C° 1,2 mm 6 m/s 740 mmHg 76%
    11:00 +26°C° 1,2 mm 5 m/s 740 mmHg 78%
    12:00 +26°C° 1,2 mm 5 m/s 740 mmHg 80%
    13:00 +25°C° 1,3 mm 5 m/s 740 mmHg 82%
    14:00 +23°C° 1,3 mm 5 m/s 740 mmHg 85%
    15:00 +22°C° 1,3 mm 5 m/s 740 mmHg 88%
    16:00 +22°C° 0,3 mm 5 m/s 740 mmHg 86%
    17:00 +22°C° 0,3 mm 4 m/s 740 mmHg 85%
    18:00 +22°C° 0,3 mm 4 m/s 740 mmHg 83%
    19:00 +22°C° 0,2 mm 4 m/s 740 mmHg 86%
    20:00 +21°C° 0,2 mm 4 m/s 740 mmHg 89%
    21:00 +20°C° 0,2 mm 4 m/s 740 mmHg 91%
    22:00 +20°C° 0,1 mm 4 m/s 739 mmHg 93%
    23:00 +20°C° 0,1 mm 4 m/s 739 mmHg 94%

    Après-demain, 18 Juillet, Mercredi

    Heure Température Précipitation Vent Pression Humidité
    00:00 +20°C° 0,1 mm 4 m/s 739 mmHg 95%
    01:00 +20°C° 0,5 mm 4 m/s 739 mmHg 96%
    02:00 +20°C° 0,5 mm 3 m/s 739 mmHg 96%
    03:00 +20°C° 0,5 mm 3 m/s 739 mmHg 97%
    04:00 +20°C° 0,9 mm 3 m/s 739 mmHg 97%
    05:00 +20°C° 0,9 mm 3 m/s 739 mmHg 97%
    06:00 +19°C° 0,9 mm 3 m/s 738 mmHg 97%
    07:00 +20°C° 0,6 mm 3 m/s 739 mmHg 95%
    08:00 +20°C° 0,6 mm 3 m/s 739 mmHg 93%
    09:00 +21°C° 0,6 mm 3 m/s 739 mmHg 91%
    10:00 +22°C° 0,4 mm 4 m/s 739 mmHg 85%
    11:00 +23°C° 0,4 mm 4 m/s 739 mmHg 80%
    12:00 +25°C° 0,4 mm 4 m/s 740 mmHg 75%
    13:00 +25°C° 0,7 mm 4 m/s 740 mmHg 73%
    14:00 +26°C° 0,7 mm 4 m/s 740 mmHg 72%
    15:00 +26°C° 0,7 mm 4 m/s 740 mmHg 71%
    16:00 +26°C° 0,7 mm 4 m/s 740 mmHg 74%
    17:00 +26°C° 0,7 mm 3 m/s 740 mmHg 76%
    18:00 +25°C° 0,7 mm 3 m/s 740 mmHg 79%
    19:00 +24°C° 0,4 mm 3 m/s 740 mmHg 83%
    20:00 +22°C° 0,4 mm 3 m/s 741 mmHg 86%
    21:00 +21°C° 0,4 mm 3 m/s 741 mmHg 89%
    22:00 +20°C° 0 mm 3 m/s 741 mmHg 91%
    23:00 +20°C° 0 mm 3 m/s 741 mmHg 92%

    19 Juillet, Jeudi

    Heure Température Précipitation Vent Pression Humidité
    00:00 +19°C° 0 mm 3 m/s 741 mmHg 93%
    01:00 +19°C° 0 mm 3 m/s 741 mmHg 94%
    02:00 +19°C° 0 mm 3 m/s 741 mmHg 94%
    03:00 +18°C° 0 mm 3 m/s 742 mmHg 95%
    04:00 +19°C° 0 mm 3 m/s 742 mmHg 94%
    05:00 +19°C° 0 mm 3 m/s 742 mmHg 92%
    06:00 +19°C° 0 mm 3 m/s 742 mmHg 91%
    07:00 +21°C° 0,1 mm 3 m/s 742 mmHg 85%
    08:00 +24°C° 0,1 mm 3 m/s 742 mmHg 80%
    09:00 +25°C° 0,1 mm 3 m/s 743 mmHg 74%
    10:00 +26°C° 0,3 mm 4 m/s 743 mmHg 69%
    11:00 +27°C° 0,3 mm 4 m/s 743 mmHg 64%
    12:00 +29°C° 0,3 mm 5 m/s 743 mmHg 59%
    13:00 +29°C° 0,6 mm 5 m/s 743 mmHg 59%
    14:00 +29°C° 0,6 mm 5 m/s 743 mmHg 60%
    15:00 +29°C° 0,6 mm 5 m/s 743 mmHg 60%
    16:00 +28°C° 1,1 mm 4 m/s 743 mmHg 66%
    17:00 +27°C° 1,1 mm 4 m/s 743 mmHg 71%
    18:00 +26°C° 1,1 mm 4 m/s 743 mmHg 76%
    19:00 +25°C° 0,2 mm 3 m/s 743 mmHg 80%
    20:00 +22°C° 0,2 mm 3 m/s 744 mmHg 84%
    21:00 +21°C° 0,2 mm 3 m/s 744 mmHg 87%
    22:00 +21°C° 0,1 mm 3 m/s 744 mmHg 89%
    23:00 +20°C° 0,1 mm 3 m/s 744 mmHg 90%

    20 Juillet, Vendredi

    Heure Température Précipitation Vent Pression Humidité
    00:00 +20°C° 0,1 mm 3 m/s 744 mmHg 91%
    01:00 +20°C° 0,4 mm 3 m/s 744 mmHg 91%
    02:00 +20°C° 0,4 mm 3 m/s 744 mmHg 92%
    03:00 +19°C° 0,4 mm 3 m/s 744 mmHg 92%
    04:00 +20°C° 0,5 mm 3 m/s 744 mmHg 92%
    05:00 +20°C° 0,5 mm 4 m/s 744 mmHg 92%
    06:00 +20°C° 0,5 mm 4 m/s 744 mmHg 91%
    07:00 +22°C° 0,2 mm 4 m/s 744 mmHg 87%
    08:00 +23°C° 0,2 mm 4 m/s 744 mmHg 82%
    09:00 +26°C° 0,2 mm 4 m/s 744 mmHg 77%
    10:00 +27°C° 0,5 mm 4 m/s 744 mmHg 73%
    11:00 +28°C° 0,5 mm 4 m/s 744 mmHg 68%
    12:00 +29°C° 0,5 mm 5 m/s 744 mmHg 64%
    13:00 +30°C° 0,7 mm 4 m/s 744 mmHg 63%
    14:00 +30°C° 0,7 mm 4 m/s 744 mmHg 62%
    15:00 +30°C° 0,7 mm 3 m/s 744 mmHg 62%
    16:00 +29°C° 1 mm 3 m/s 743 mmHg 67%
    17:00 +29°C° 1 mm 3 m/s 743 mmHg 71%
    18:00 +28°C° 1 mm 3 m/s 743 mmHg 76%
    19:00 +26°C° 0,2 mm 3 m/s 743 mmHg 81%
    20:00 +25°C° 0,2 mm 2 m/s 743 mmHg 85%
    21:00 +23°C° 0,2 mm 2 m/s 743 mmHg 90%
    22:00 +23°C° 0,3 mm 2 m/s 743 mmHg 91%
    23:00 +23°C° 0,3 mm 2 m/s 743 mmHg 92%

    21 Juillet, Samedi

    Heure Température Précipitation Vent Pression Humidité
    00:00 +21°C° 0,3 mm 3 m/s 743 mmHg 93%
    01:00 +21°C° 0,4 mm 2 m/s 743 mmHg 93%
    02:00 +21°C° 0,4 mm 2 m/s 743 mmHg 92%
    03:00 +21°C° 0,4 mm 1 m/s 743 mmHg 92%
    04:00 +22°C° 0 mm 1 m/s 743 mmHg 92%
    05:00 +21°C° 0 mm 2 m/s 743 mmHg 92%
    06:00 +21°C° 0 mm 2 m/s 743 mmHg 92%
    07:00 +24°C° 0 mm 2 m/s 743 mmHg 86%
    08:00 +25°C° 0 mm 2 m/s 743 mmHg 81%
    09:00 +27°C° 0 mm 2 m/s 743 mmHg 75%
    10:00 +27°C° 0,5 mm 2 m/s 743 mmHg 71%
    11:00 +28°C° 0,5 mm 2 m/s 743 mmHg 68%
    12:00 +29°C° 0,5 mm 3 m/s 743 mmHg 64%
    13:00 +30°C° 0,4 mm 3 m/s 743 mmHg 63%
    14:00 +30°C° 0,4 mm 3 m/s 743 mmHg 62%
    15:00 +30°C° 0,4 mm 3 m/s 743 mmHg 61%
    16:00 +30°C° 0,2 mm 2 m/s 743 mmHg 63%
    17:00 +30°C° 0,2 mm 2 m/s 743 mmHg 66%
    18:00 +29°C° 0,2 mm 2 m/s 743 mmHg 68%
    19:00 +28°C° 0,2 mm 2 m/s 743 mmHg 73%
    20:00 +26°C° 0,2 mm 2 m/s 744 mmHg 78%
    21:00 +24°C° 0,2 mm 2 m/s 744 mmHg 84%
    22:00 +24°C° 0 mm 2 m/s 744 mmHg 86%
    23:00 +23°C° 0 mm 2 m/s 744 mmHg 88%
    Voir plus